Weather History for KMQY - July, 2013

Change the Weather History Date:

Wednesday, July 31, 2013

  Actual Average Record
Temperature  
Mean Temperature 76 °F -  
Max Temperature 84 °F 86 °F 99 °F (2006)
Min Temperature 68 °F 69 °F 59 °F (2014)
Cooling Degree Days 11    
Growing Degree Days 26 (Base 50)    
Moisture  
Dew Point 71 °F    
Average Humidity 93    
Maximum Humidity 100    
Minimum Humidity 72    
Precipitation  
Precipitation 0.00 in - - ()
Sea Level Pressure  
Sea Level Pressure 30.05 in    
Wind  
Wind Speed 7 mph (South)    
Max Wind Speed 10 mph    
Max Gust Speed 16 mph    
Visibility 9 miles    
Events Rain , Thunderstorm    
Averages and records for this station are not official NWS values.
T = Trace of Precipitation, MM = Missing Value Source: NWS Daily Summary

Daily Weather History Graph

Daily Weather History Graph

Search for Another Location

Airport or City:

Trip Planner

Search our weather history database for the weather conditions in past years. The results will help you decide how hot, cold, wet, or windy it might be!

Date:

Astronomy

Jul. 31, 2013 Rise Set
Actual Time 5:52 AM CDT 7:51 PM CDT
Civil Twilight 5:24 AM CDT 8:19 PM CDT
Nautical Twilight 4:50 AM CDT 8:54 PM CDT
Astronomical Twilight 4:13 AM CDT 9:30 PM CDT
Moon 12:47 AM CDT (7/31) 3:06 PM CDT (7/31)
Length of Visible Light 14h 55m
Length of Day
13h 58m
Waning Crescent, 31% of the Moon is Illuminated
Jul 31
Waning Crescent
Aug 6
New
Aug 14
First Quarter
Aug 20
Full
Aug 28
Last Quarter

Hourly Weather History & Observations

Time (CDT) Temp. Heat Index Dew Point Humidity Pressure Visibility Wind Dir Wind Speed Gust Speed Precip Events Conditions
12:01 AM 69.8 °F - 69.8 °F 100% 30.13 in 5.0 mi East 9.2 mph - 0.00 in Rain Light Rain
12:10 AM 69.8 °F - 69.8 °F 100% 30.13 in 10.0 mi ESE 6.9 mph - 0.00 in Rain Light Rain
12:56 AM 70.0 °F - 68.9 °F 96% 30.15 in 10.0 mi SSE 4.6 mph - 0.00 in Rain Light Rain
1:56 AM 70.0 °F - 68.9 °F 96% 30.13 in 10.0 mi ESE 5.8 mph - 0.00 in   Mostly Cloudy
2:56 AM 70.0 °F - 68.9 °F 96% 30.11 in 10.0 mi ESE 4.6 mph - N/A   Mostly Cloudy
3:30 AM 69.8 °F - 68.0 °F 94% 30.09 in 8.0 mi East 5.8 mph - 0.00 in Rain Light Rain
3:56 AM 68.9 °F - 68.0 °F 97% 30.09 in 10.0 mi SSE 6.9 mph - 0.00 in   Scattered Clouds
4:23 AM 69.8 °F - 68.0 °F 94% 30.07 in 10.0 mi South 6.9 mph - N/A Thunderstorm Overcast
4:45 AM 69.8 °F - 68.0 °F 94% 30.07 in 10.0 mi SSE 6.9 mph - N/A Thunderstorm Thunderstorm
4:56 AM 68.9 °F - 68.9 °F 100% 30.07 in 10.0 mi SSE 8.1 mph - N/A Thunderstorm Thunderstorm
5:14 AM 69.8 °F - 69.8 °F 100% 30.06 in 10.0 mi SSE 8.1 mph - N/A   Mostly Cloudy
5:56 AM 70.0 °F - 68.9 °F 96% 30.09 in 10.0 mi Variable 5.8 mph - N/A   Scattered Clouds
6:31 AM 69.8 °F - 69.8 °F 100% 30.07 in 2.5 mi SSW 4.6 mph - 0.00 in Rain Light Rain
6:36 AM 69.8 °F - 69.8 °F 100% 30.08 in 1.8 mi South 4.6 mph - 0.00 in Rain Heavy Rain
6:43 AM 69.8 °F - 69.8 °F 100% 30.07 in 2.0 mi Variable 4.6 mph - 0.00 in Rain Light Rain
6:56 AM 70.0 °F - 68.9 °F 96% 30.09 in 2.0 mi South 8.1 mph - 0.00 in Rain Heavy Rain
7:03 AM 69.8 °F - 69.8 °F 100% 30.07 in 2.0 mi South 10.4 mph 16.1 mph 0.00 in Rain Light Rain
7:27 AM 69.8 °F - 69.8 °F 100% 30.07 in 10.0 mi South 8.1 mph - 0.00 in   Overcast
7:56 AM 70.9 °F - 68.9 °F 93% 30.09 in 10.0 mi South 5.8 mph - 0.00 in   Overcast
8:16 AM 71.6 °F - 69.8 °F 94% 30.08 in 10.0 mi South 5.8 mph - N/A   Overcast
8:33 AM 71.6 °F - 69.8 °F 94% 30.08 in 2.0 mi SSW 4.6 mph - 0.00 in Rain Light Rain
8:35 AM 71.6 °F - 69.8 °F 94% 30.08 in 4.0 mi South 4.6 mph - 0.00 in Rain Rain
8:56 AM 72.0 °F - 70.9 °F 96% 30.09 in 8.0 mi SSE 5.8 mph - 0.00 in   Overcast
9:24 AM 71.6 °F - 71.6 °F 100% 30.07 in 10.0 mi SSE 6.9 mph - 0.00 in   Overcast
9:56 AM 72.9 °F - 72.0 °F 97% 30.09 in 10.0 mi South 9.2 mph - 0.00 in   Overcast
10:03 AM 73.4 °F - 71.6 °F 94% 30.07 in 10.0 mi South 6.9 mph - N/A   Overcast
10:07 AM 73.4 °F - 71.6 °F 94% 30.07 in 10.0 mi South 10.4 mph - N/A   Overcast
10:45 AM 73.4 °F - 71.6 °F 94% 30.07 in 10.0 mi SSW 10.4 mph - N/A   Overcast
10:56 AM 73.9 °F - 70.9 °F 90% 30.09 in 10.0 mi SSW 9.2 mph - N/A   Overcast
11:56 AM 72.0 °F - 70.9 °F 96% 30.09 in 10.0 mi SSE 4.6 mph - 0.00 in   Overcast
12:08 PM 73.4 °F - 71.6 °F 94% 30.06 in 10.0 mi Variable 5.8 mph - N/A   Overcast
12:17 PM 75.2 °F - 73.4 °F 94% 30.05 in 10.0 mi SSE 6.9 mph - N/A   Overcast
12:22 PM 75.2 °F - 73.4 °F 94% 30.05 in 10.0 mi SSE 5.8 mph - N/A   Overcast
12:56 PM 75.9 °F - 72.9 °F 90% 30.05 in 10.0 mi SSE 8.1 mph - N/A   Overcast
1:21 PM 75.2 °F - 73.4 °F 94% 30.03 in 10.0 mi SSE 9.2 mph - N/A   Overcast
1:56 PM 75.9 °F - 72.9 °F 90% 30.04 in 10.0 mi South 8.1 mph - N/A   Overcast
2:03 PM 77.0 °F - 73.4 °F 89% 30.01 in 10.0 mi South 4.6 mph - N/A   Overcast
2:36 PM 78.8 °F - 73.4 °F 83% 30.01 in 10.0 mi Variable 6.9 mph - N/A   Mostly Cloudy
2:56 PM 79.9 °F - 73.9 °F 82% 30.01 in 10.0 mi SSW 5.8 mph - 0.00 in Rain Light Rain
3:15 PM 80.6 °F 86.2 °F 75.2 °F 84% 30.00 in 10.0 mi WSW 4.6 mph - 0.00 in   Mostly Cloudy
3:56 PM 81.9 °F 87.7 °F 73.9 °F 77% 30.00 in 10.0 mi Variable 3.5 mph - 0.00 in   Overcast
4:56 PM 84.9 °F 93.3 °F 74.8 °F 72% 29.97 in 10.0 mi Variable 4.6 mph - N/A   Scattered Clouds
5:56 PM 81.9 °F 87.7 °F 73.9 °F 77% 29.98 in 10.0 mi Calm Calm - 0.00 in Rain Light Rain
6:56 PM 81.0 °F 86.7 °F 74.8 °F 82% 29.98 in 10.0 mi SSW 3.5 mph - 0.00 in   Partly Cloudy
7:56 PM 77.9 °F - 73.9 °F 88% 29.99 in 10.0 mi NW 5.8 mph - N/A   Mostly Cloudy
8:56 PM 75.9 °F - 72.9 °F 90% 29.99 in 10.0 mi WNW 5.8 mph - N/A   Partly Cloudy
9:56 PM 74.8 °F - 72.0 °F 91% 30.00 in 10.0 mi West 4.6 mph - N/A   Partly Cloudy
10:08 PM 75.2 °F - 71.6 °F 89% 29.99 in 10.0 mi West 3.5 mph - N/A Thunderstorm Scattered Clouds
10:23 PM 73.4 °F - 71.6 °F 94% 30.00 in 10.0 mi West 5.8 mph - N/A   Scattered Clouds
10:41 PM 73.4 °F - 73.4 °F 100% 30.00 in 10.0 mi WSW 5.8 mph - N/A   Mostly Cloudy
10:56 PM 74.8 °F - 72.9 °F 94% 30.01 in 10.0 mi NW 4.6 mph - N/A   Mostly Cloudy
11:09 PM 75.2 °F - 73.4 °F 94% 30.00 in 10.0 mi NNW 4.6 mph - N/A   Mostly Cloudy
11:56 PM 73.9 °F - 72.9 °F 96% 30.01 in 10.0 mi NNW 4.6 mph - N/A   Clear